BEIDOU-3 M15 (C34)

Last updated on Oct. 23, 2020, 5:57 a.m. UTC

1 43647U 18078A   20296.42131730 -.00000115  00000-0  10000-3 0  9990
2 43647  55.2114  11.2732 0005460 339.7636 317.9777  1.86232521 13737
UTC
Height (km)
Latitude
Longitude
Inclination
Orbital Period
UTC large
Height (km)
Speed (km/s)
/
Latitude / Longitude
Inclination (degrees)
Orbital Period (minutes)
Azimuth
Elevation
Range (km)
Doppler Factor
iOS Compass Heading
iOS Angle

Next 30 passes for location: Hong Kong

Rise time Rise Azimuth (degrees) Set time Set Azimuth (degrees) Duration Max altitude (degrees)

No matching passes for this satellites